Погода в Джалке

Россия / Чеченская Республика     43°19′19″N   45°59′43″E
темп.,
°C
ветер,
м/с
пор.,
м/с
влажн.,
%
обл.,
%
осадки,
мм/ч
давл.,
гПа
погр.,
м
9 декабря, чт
чт900:00+7юз227911 0.0 101010
03:00+7юз228050 0.0 101120
06:00+7юз3373100 0.0 101154
09:00+10з61463100 0.1 1013638
12:00+12зсз51161100 0.0 1014902
15:00+13з4954100 0.0 1016634
18:00+11юз3568100 0.3 1018118
21:00+11зюз3667100 0.3 1019175
10 декабря, пт
пт1000:00+11зюз3667100 0.1 1021161
03:00+10з237191 0.1 102254
06:00+9з1284100 0.0 102476
09:00+9зсз2387100 0.1 1025175
12:00+8зюз3690100 0.6 1026395
15:00+9юз258883 3.1 1025272
18:00+8зюз118536 0.0 102613
21:00+7ю11865 0.0 102610
11 декабря, сб
сб1100:00+6ююв11850 0.0 102510
03:00+5вюв11870 0.0 102510
06:00+4в11911 0.0 102510
09:00+5св128924 0.0 1026131
12:00+8св237529 0.0 1025466
15:00+9св34696 0.0 1025537
18:00+6св23786 0.0 102775
21:00+4всв2281100 0.0 102852
12 декабря, вс
вс1200:00+3св12875 0.0 102943
03:00+2всв22936 0.0 102939
06:00+1ссв129220 0.0 103044
09:00+2всв128743 0.0 1030186
12:00+6всв457564 0.0 1029567
15:00+7всв56688 0.0 1029678
18:00+4всв48845 0.0 1030276
21:00+3всв369219 0.0 1029226
13 декабря, пн
пн1300:00+2всв239338 0.0 1028103
03:00+2вюв129367 0.0 1027106
06:00+2ю129084 0.0 102790
09:00+4ююз118069 0.0 1026429
12:00+6всв12683 0.0 1025535
15:00+8вюв12610 0.0 1023562
18:00+5ю11775 0.0 102334
21:00+3ююв01845 0.0 102230